Hillsdale, MI

11:22 PM EST on November 21, 2017 (GMT -0500)
Hillsdale Municipal

Weather History for KJYM - November, 2012

Change the Weather History Date:

Tuesday, November 27, 2012

  Actual Average Record
Temperature  
Mean Temperature 27 °F -  
Max Temperature 35 °F 45 °F 63 °F (1990)
Min Temperature 20 °F 28 °F 8 °F (1977)
Degree Days  
Heating Degree Days 38    
Moisture  
Dew Point 18 °F    
Average Humidity 64    
Maximum Humidity 81    
Minimum Humidity 45    
Precipitation  
Precipitation 0.00 in - - ()
Sea Level Pressure  
Sea Level Pressure 30.27 in    
Wind  
Wind Speed 3 mph (WNW)    
Max Wind Speed 9 mph    
Max Gust Speed -    
Visibility 10 miles    
Events      
Averages and records for this station are not official NWS values.
T = Trace of Precipitation, MM = Missing Value Source: NWS Daily Summary

Daily Weather History Graph

Daily Weather History Graph

Search for Another Location

Airport or City:

Trip Planner

Search our weather history database for the weather conditions in past years. The results will help you decide how hot, cold, wet, or windy it might be!

Date:

Astronomy

Nov. 27, 2012 Rise Set
Actual Time 7:42 AM EST 5:09 PM EST
Civil Twilight 7:11 AM EST 5:40 PM EST
Nautical Twilight 6:37 AM EST 6:14 PM EST
Astronomical Twilight 6:03 AM EST 6:48 PM EST
Moon 4:40 PM EST (11/27) 6:46 AM EST (11/27)
Length of Visible Light 10h 28m
Length of Day
9h 26m
Waxing Gibbous, 99% of the Moon is Illuminated
Nov 27
Waxing Gibbous
Nov 28
Full
Dec 6
Last Quarter
Dec 13
New
Dec 20
First Quarter

Hourly Weather History & Observations

Time (EST) Temp. Windchill Dew Point Humidity Pressure Visibility Wind Dir Wind Speed Gust Speed Precip Events Conditions
12:14 AM 30.4 °F 26.9 °F 22.3 °F 72% 30.26 in 10.0 mi NNW 3.5 mph - N/A   Overcast
12:35 AM 29.8 °F 26.3 °F 21.9 °F 72% 30.26 in 10.0 mi North 3.5 mph - N/A   Overcast
12:55 AM 29.8 °F - 21.7 °F 72% 30.27 in 10.0 mi Calm Calm - N/A   Overcast
1:14 AM 29.8 °F - 22.3 °F 73% 30.27 in 10.0 mi Calm Calm - N/A   Overcast
1:35 AM 29.7 °F 23.7 °F 21.0 °F 70% 30.27 in 10.0 mi NNW 5.8 mph - N/A   Overcast
1:54 AM 29.7 °F 23.7 °F 19.2 °F 65% 30.27 in 10.0 mi North 5.8 mph - N/A   Overcast
2:14 AM 29.5 °F 23.4 °F 18.7 °F 64% 30.27 in 10.0 mi North 5.8 mph - N/A   Overcast
2:35 AM 29.1 °F 25.4 °F 18.7 °F 65% 30.27 in 10.0 mi North 3.5 mph - N/A   Overcast
2:54 AM 29.1 °F - 19.0 °F 66% 30.27 in 10.0 mi Calm Calm - N/A   Overcast
3:15 AM 28.8 °F - 19.4 °F 68% 30.26 in 10.0 mi Calm Calm - N/A   Overcast
3:35 AM 28.8 °F 21.7 °F 18.9 °F 67% 30.26 in 10.0 mi NNW 6.9 mph - N/A   Overcast
3:54 AM 28.8 °F 23.7 °F 18.7 °F 66% 30.26 in 10.0 mi NNW 4.6 mph - N/A   Overcast
4:15 AM 28.8 °F 21.7 °F 18.9 °F 67% 30.26 in 10.0 mi NNW 6.9 mph - N/A   Overcast
4:35 AM 27.5 °F 20.2 °F 18.9 °F 70% 30.26 in 10.0 mi NNW 6.9 mph - N/A   Overcast
4:54 AM 26.6 °F 19.1 °F 17.4 °F 68% 30.27 in 10.0 mi NNW 6.9 mph - N/A   Mostly Cloudy
5:15 AM 25.2 °F 19.5 °F 16.7 °F 70% 30.27 in 10.0 mi NNW 4.6 mph - N/A   Scattered Clouds
5:35 AM 24.1 °F 18.2 °F 16.2 °F 72% 30.27 in 10.0 mi NNW 4.6 mph - N/A   Clear
5:54 AM 23.4 °F 18.9 °F 15.8 °F 73% 30.28 in 10.0 mi NW 3.5 mph - N/A   Clear
6:15 AM 22.5 °F 17.8 °F 15.3 °F 74% 30.28 in 10.0 mi NW 3.5 mph - N/A   Clear
6:54 AM 22.5 °F - 15.6 °F 75% 30.29 in 10.0 mi Calm Calm - N/A   Clear
7:15 AM 22.3 °F - 16.0 °F 77% 30.29 in 10.0 mi Calm Calm - N/A   Clear
7:34 AM 21.4 °F - 15.6 °F 78% 30.29 in 10.0 mi Calm Calm - N/A   Clear
7:55 AM 20.3 °F - 14.7 °F 79% 30.30 in 10.0 mi Calm Calm - N/A   Clear
8:14 AM 20.3 °F - 15.3 °F 81% 30.30 in 10.0 mi Calm Calm - N/A   Clear
8:35 AM 23.0 °F - 17.1 °F 78% 30.31 in 10.0 mi Calm Calm - N/A   Clear
8:55 AM 25.2 °F - 17.6 °F 73% 30.31 in 10.0 mi Calm Calm - N/A   Clear
9:14 AM 26.2 °F - 17.1 °F 68% 30.31 in 10.0 mi Calm Calm - N/A   Clear
9:35 AM 27.0 °F 23.0 °F 16.5 °F 65% 30.32 in 10.0 mi North 3.5 mph - N/A   Clear
9:55 AM 27.5 °F 23.6 °F 16.3 °F 63% 30.32 in 10.0 mi North 3.5 mph - N/A   Clear
10:35 AM 28.9 °F 25.2 °F 16.3 °F 59% 30.33 in 10.0 mi North 3.5 mph - N/A   Clear
10:54 AM 29.7 °F - 15.4 °F 55% 30.33 in 10.0 mi Calm Calm - N/A   Clear
11:14 AM 30.2 °F - 14.9 °F 53% 30.33 in 10.0 mi Calm Calm - N/A   Clear
11:35 AM 30.6 °F - 14.9 °F 52% 30.34 in 10.0 mi Calm Calm - N/A   Clear
11:54 AM 31.5 °F - 15.1 °F 51% 30.33 in 10.0 mi Calm Calm - N/A   Clear
12:15 PM 32.2 °F - 15.3 °F 50% 30.32 in 10.0 mi Calm Calm - N/A   Clear
12:34 PM 32.9 °F 28.5 °F 16.0 °F 50% 30.31 in 10.0 mi WNW 4.6 mph - N/A   Clear
12:54 PM 33.1 °F 30.0 °F 15.3 °F 48% 30.30 in 10.0 mi West 3.5 mph - N/A   Clear
1:15 PM 33.6 °F 28.4 °F 16.0 °F 48% 30.30 in 10.0 mi SW 5.8 mph - N/A   Clear
1:34 PM 34.3 °F 29.2 °F 16.9 °F 49% 30.30 in 10.0 mi SW 5.8 mph - N/A   Clear
1:55 PM 34.0 °F 29.8 °F 15.3 °F 46% 30.28 in 10.0 mi West 4.6 mph - N/A   Clear
2:14 PM 34.2 °F 27.5 °F 15.8 °F 47% 30.28 in 10.0 mi West 8.1 mph - N/A   Clear
2:35 PM 34.2 °F 26.8 °F 14.9 °F 45% 30.27 in 10.0 mi West 9.2 mph - N/A   Clear
2:55 PM 34.3 °F 29.2 °F 15.6 °F 46% 30.25 in 10.0 mi West 5.8 mph - N/A   Clear
3:14 PM 34.9 °F 29.0 °F 16.5 °F 47% 30.25 in 10.0 mi West 6.9 mph - N/A   Clear
3:35 PM 34.9 °F 28.3 °F 17.2 °F 49% 30.24 in 10.0 mi WNW 8.1 mph - N/A   Clear
3:55 PM 34.0 °F 26.6 °F 17.4 °F 51% 30.24 in 10.0 mi West 9.2 mph - N/A   Clear
4:14 PM 34.0 °F 28.0 °F 17.1 °F 50% 30.24 in 10.0 mi WNW 6.9 mph - N/A   Clear
4:35 PM 33.3 °F 27.9 °F 17.2 °F 52% 30.24 in 10.0 mi WNW 5.8 mph - N/A   Clear
4:54 PM 32.5 °F 29.3 °F 17.4 °F 54% 30.24 in 10.0 mi NW 3.5 mph - N/A   Clear
5:14 PM 31.6 °F - 16.7 °F 54% 30.24 in 10.0 mi Calm Calm - N/A   Clear
5:35 PM 30.7 °F - 17.8 °F 59% 30.24 in 10.0 mi Calm Calm - N/A   Clear
5:54 PM 28.9 °F - 19.0 °F 67% 30.24 in 10.0 mi Calm Calm - N/A   Clear
6:15 PM 27.1 °F - 20.1 °F 75% 30.24 in 10.0 mi Calm Calm - N/A   Clear
7:15 PM 27.9 °F - 18.1 °F 67% 30.25 in 10.0 mi Calm Calm - N/A   Clear
7:35 PM 27.9 °F 24.0 °F 18.1 °F 67% 30.24 in 10.0 mi SSW 3.5 mph - N/A   Clear
7:54 PM 27.3 °F 23.4 °F 18.1 °F 68% 30.24 in 10.0 mi South 3.5 mph - N/A   Clear
8:15 PM 27.0 °F 21.6 °F 18.3 °F 70% 30.24 in 10.0 mi SSW 4.6 mph - N/A   Clear
8:34 PM 27.3 °F 22.0 °F 18.3 °F 69% 30.24 in 10.0 mi SSW 4.6 mph - N/A   Clear
8:54 PM 27.0 °F - 18.1 °F 69% 30.24 in 10.0 mi Calm Calm - N/A   Clear
9:15 PM 27.1 °F 23.2 °F 18.1 °F 69% 30.24 in 10.0 mi SSW 3.5 mph - N/A   Clear
9:34 PM 25.9 °F 21.7 °F 18.0 °F 72% 30.23 in 10.0 mi SSW 3.5 mph - N/A   Clear
9:55 PM 27.1 °F 21.8 °F 18.7 °F 70% 30.24 in 10.0 mi SSW 4.6 mph - N/A   Clear
10:15 PM 27.1 °F 21.8 °F 18.9 °F 71% 30.24 in 10.0 mi SW 4.6 mph - N/A   Clear
10:34 PM 28.6 °F 22.4 °F 19.4 °F 69% 30.24 in 10.0 mi SW 5.8 mph - N/A   Clear
10:54 PM 28.8 °F 22.6 °F 19.8 °F 69% 30.23 in 10.0 mi SSW 5.8 mph - N/A   Clear
11:15 PM 28.6 °F 22.4 °F 19.4 °F 69% 30.22 in 10.0 mi SSW 5.8 mph - N/A   Clear
11:54 PM 27.9 °F 20.6 °F 19.0 °F 69% 30.22 in 10.0 mi SW 6.9 mph - N/A   Clear